Riverside, CA

12:53 AM PST on February 13, 2016 (GMT -0800)
Riverside Municipal

Weather History for KRAL - December, 2012

Change the Weather History Date:

Tuesday, December 25, 2012

  Actual Average Record
Temperature  
Mean Temperature 52 °F 54 °F  
Max Temperature 61 °F 66 °F 83 °F (1980)
Min Temperature 43 °F 42 °F 25 °F (1953)
Degree Days  
Heating Degree Days 13 11  
Month to date heating degree days 228 261  
Since 1 July heating degree days 340 461  
Cooling Degree Days 0 0  
Month to date cooling degree days 0 0  
Year to date cooling degree days 2229 1754  
Growing Degree Days 2 (Base 50)    
Moisture  
Dew Point 38 °F    
Average Humidity 64    
Maximum Humidity 100    
Minimum Humidity 27    
Precipitation  
Precipitation 0.00 in 0.05 in 1.14 in (1940)
Month to date precipitation 1.09 1.02  
Year to date precipitation 4.47 11.89  
Since 1 July precipitation 1.62  
Snow  
Snow 0.00 in - - ()
Month to date snowfall 0.0  
Year to date snowfall 0.0  
Snow Depth 0.00 in    
Sea Level Pressure  
Sea Level Pressure 30.05 in    
Wind  
Wind Speed 2 mph (East)    
Max Wind Speed 9 mph    
Max Gust Speed 12 mph    
Visibility 7 miles    
Events      
T = Trace of Precipitation, MM = Missing Value Source: NWS Daily Summary

Daily Weather History Graph

Daily Weather History Graph

Search for Another Location

Airport or City:

Trip Planner

Search our weather history database for the weather conditions in past years. The results will help you decide how hot, cold, wet, or windy it might be!

Date:

Astronomy

Dec. 25, 2012 Rise Set
Actual Time 6:53 AM PST 4:47 PM PST
Civil Twilight 6:25 AM PST 5:15 PM PST
Nautical Twilight 5:54 AM PST 5:46 PM PST
Astronomical Twilight 5:23 AM PST 6:16 PM PST
Moon 2:57 PM PST (12/25) 4:31 AM PST (12/25)
Length of Visible Light 10h 49m
Length of Day
9h 54m
Waxing Gibbous, 94% of the Moon is Illuminated
Dec 25
Waxing Gibbous
Dec 28
Full
Jan 4
Last Quarter
Jan 11
New
Jan 18
First Quarter

Hourly Weather History & Observations

Time (PST) Temp. Windchill Dew Point Humidity Pressure Visibility Wind Dir Wind Speed Gust Speed Precip Events Conditions
12:53 AM 48.9 °F - 42.1 °F 77% 30.05 in 10.0 mi NNE 5.8 mph - N/A   Clear
1:53 AM 48.9 °F - 44.1 °F 83% 30.06 in 10.0 mi NE 3.5 mph - N/A   Clear
2:53 AM 46.0 °F - 43.0 °F 89% 30.06 in 9.0 mi Calm Calm - N/A   Clear
3:53 AM 46.9 °F - 44.1 °F 90% 30.08 in 4.0 mi Calm Calm - N/A   Scattered Clouds
4:13 AM 46.4 °F - 44.6 °F 93% 30.10 in 2.5 mi Calm Calm - N/A   Partly Cloudy
4:24 AM 46.4 °F - 44.6 °F 93% 30.10 in 3.0 mi Calm Calm - N/A   Clear
4:35 AM 46.4 °F 45.2 °F 44.6 °F 93% 30.09 in 2.5 mi SSE 3.5 mph - N/A   Clear
4:53 AM 46.0 °F 44.8 °F 44.1 °F 93% 30.07 in 2.0 mi SSE 3.5 mph - N/A   Clear
5:34 AM 44.6 °F - 42.8 °F 93% 30.10 in 3.0 mi Calm Calm - N/A   Scattered Clouds
5:51 AM 44.6 °F - 42.8 °F 93% 30.10 in 1.8 mi Calm Calm - N/A   Partly Cloudy
5:53 AM 44.1 °F - 43.0 °F 96% 30.08 in 1.5 mi Calm Calm - N/A   Scattered Clouds
6:07 AM 44.6 °F 43.1 °F 42.8 °F 93% 30.10 in 3.0 mi ENE 3.5 mph - N/A   Partly Cloudy
6:41 AM 42.8 °F - 42.8 °F 100% 30.11 in 2.0 mi Calm Calm - N/A   Partly Cloudy
6:53 AM 43.0 °F 41.3 °F 42.1 °F 97% 30.09 in 4.0 mi ENE 3.5 mph - N/A   Partly Cloudy
7:53 AM 45.0 °F 43.5 °F 43.0 °F 93% 30.09 in 5.0 mi ENE 3.5 mph - N/A   Overcast
8:53 AM 48.0 °F - 43.0 °F 83% 30.09 in 9.0 mi NE 3.5 mph - N/A   Clear
9:53 AM 53.1 °F - 41.0 °F 64% 30.08 in 10.0 mi NE 3.5 mph - N/A   Scattered Clouds
10:53 AM 57.9 °F - 32.0 °F 37% 30.06 in 10.0 mi East 6.9 mph - N/A   Mostly Cloudy
11:53 AM 60.1 °F - 26.1 °F 27% 30.04 in 10.0 mi Calm Calm - N/A   Clear
12:53 PM 61.0 °F - 28.0 °F 29% 30.02 in 10.0 mi Calm Calm - N/A   Clear
1:53 PM 61.0 °F - 28.0 °F 29% 30.00 in 10.0 mi Calm Calm - N/A   Overcast
2:53 PM 61.0 °F - 28.9 °F 30% 29.99 in 10.0 mi Calm Calm - N/A   Clear
3:53 PM 60.1 °F - 28.0 °F 30% 29.98 in 10.0 mi Calm Calm - N/A   Mostly Cloudy
4:53 PM 57.0 °F - 32.0 °F 39% 29.98 in 10.0 mi ESE 3.5 mph - N/A   Mostly Cloudy
5:53 PM 55.9 °F - 30.9 °F 39% 29.98 in 10.0 mi Calm Calm - N/A   Overcast
6:53 PM 53.1 °F - 33.1 °F 47% 30.00 in 10.0 mi SSE 3.5 mph - N/A   Mostly Cloudy
7:53 PM 48.9 °F - 36.0 °F 61% 29.98 in 10.0 mi East 3.5 mph - N/A   Clear
8:53 PM 48.0 °F - 35.1 °F 61% 29.99 in 10.0 mi Calm Calm - N/A   Clear
9:53 PM 46.9 °F - 35.1 °F 63% 30.00 in 10.0 mi East 3.5 mph - N/A   Clear
10:53 PM 43.0 °F 41.3 °F 37.0 °F 80% 29.99 in 8.0 mi East 3.5 mph - N/A   Clear
11:53 PM 44.1 °F - 35.1 °F 71% 29.97 in 10.0 mi Calm Calm - N/A   Mostly Cloudy